Flag for U.S.A. Weather past 2 weeks in Norwalk, California, U.S.A.

Now
72 °F

Clear.


Feels Like: 75 °F
Forecast: 56 / 67 °F
Wind: 3 mph from South

Location: Fullerton Municipal Airport

Current Time: Jan 25, 2015 at 6:30:39 PM

Latest Report: Jan 25, 2015 at 5:53 PM


Visibility: 10 mi

Pressure: 29.98 "Hg

Humidity: 23%

Dew point: 32 °F

Location of NorwalkLocation

Historic Weather in Norwalk — Graph

°F

Norwalk temperature yesterday

Maximum temperature yesterday: 84 °F (at 2:53 PM)
Minimum temperature yesterday: 50 °F (at 2:53 AM)
Average temperature yesterday: 68 °F

Past Weeks' High & Low Weather Summary

 TemperatureHumidityPressure
High84 °F (Jan 24, 2:53 PM)96% (Jan 12, 4:53 AM)30.24 "Hg (Jan 12, 4:53 AM)
Low46 °F (Jan 16, 5:53 AM)9% (Jan 23, 2:53 PM)29.89 "Hg (Jan 20, 2:53 PM)
Average61 °F56%30.09 "Hg
* Reported Jan 10 4:53 PM — Jan 25 4:53 PM, Norwalk, Weather by CustomWeather, © 2014

Note: Actual official high and low records may vary slightly from our data, if they occured in-between our weather recording intervals... More about our weather records

Advertising

Norwalk weather history for previous 24 hours

 ConditionsComfort  
Time TempWeatherWind HumidityBarometerVisibility
4:53 PM
Jan 25
76 °FSunny.5 mph21%29.96 "Hg10 mi
3:53 PM81 °FSunny.No wind16%29.93 "Hg10 mi
2:53 PM81 °FSunny.3 mph14%29.93 "Hg10 mi
1:53 PM80 °FSunny.7 mph15%29.93 "Hg10 mi
12:53 PM84 °FSunny.10 mph12%29.95 "Hg10 mi
11:53 AM84 °FSunny.16 mph11%29.98 "Hg10 mi
10:53 AM82 °FSunny.8 mph12%30.01 "Hg10 mi
9:53 AM80 °FSunny.3 mph12%30.02 "Hg10 mi
8:53 AM69 °FSunny.No wind26%30.02 "Hg10 mi
7:53 AM57 °FSunny.No wind39%30.01 "Hg10 mi
6:53 AM54 °FSunny.No wind38%30.01 "Hg10 mi
5:53 AM54 °FClear.5 mph40%30.00 "Hg10 mi
4:53 AM55 °FClear.No wind40%30.00 "Hg10 mi
3:53 AM59 °FClear.No wind28%30.00 "Hg10 mi
2:53 AM64 °FClear.6 mph19%30.00 "Hg10 mi
1:53 AM69 °FClear.7 mph14%30.01 "Hg10 mi
12:53 AM71 °FClear.10 mph13%30.01 "Hg10 mi
11:53 PM
Jan 24
69 °FClear.9 mph15%30.03 "Hg10 mi
10:53 PM71 °FClear.8 mph14%30.03 "Hg10 mi
9:53 PM71 °FClear.No wind14%30.02 "Hg10 mi
8:53 PM72 °FClear.7 mph13%30.02 "Hg10 mi
7:53 PM73 °FClear.10 mph12%30.01 "Hg10 mi
6:53 PM69 °FClear.6 mph17%29.99 "Hg10 mi
Weather by CustomWeather, © 2014

See weather overviewHow to use our weather pages